This is the latest recevied weather packets stored in our database for station/object WX4SGA. If no packets are shown the sender has not sent any weather packets the latest 10 day(s).
| Time | Temp. | Humidity | Pressure | Rain* | Wind** | Luminosity | Snow |
|---|---|---|---|---|---|---|---|
| 1777652783 | 21.11° C | 59% | 1013.5 hPa | 0 mm | - | 186 W/m² | - |
| 1777652480 | 21.11° C | 60% | 1013.5 hPa | 0 mm | - | 180 W/m² | - |
| 1777652178 | 21.11° C | 59% | 1013.5 hPa | 0 mm | - | 146 W/m² | - |
| 1777651875 | 21.11° C | 59% | 1013.5 hPa | 0 mm | - | 171 W/m² | - |
| 1777651571 | 21.11° C | 58% | 1013.5 hPa | 0 mm | - | 123 W/m² | - |
| 1777651269 | 21.11° C | 59% | 1013.9 hPa | 0 mm | - | 99 W/m² | - |
| 1777650965 | 21.67° C | 58% | 1013.9 hPa | 0 mm | - | 108 W/m² | - |
| 1777650662 | 21.67° C | 57% | 1013.9 hPa | 0 mm | - | 108 W/m² | - |
| 1777650360 | 21.67° C | 57% | 1013.5 hPa | 0 mm | - | 69 W/m² | - |
| 1777650056 | 21.67° C | 57% | 1013.5 hPa | 0 mm | - | 81 W/m² | - |
| 1777649754 | 21.67° C | 58% | 1013.5 hPa | 0 mm | - | 131 W/m² | - |
| 1777649450 | 21.67° C | 58% | 1013.5 hPa | 0 mm | - | 130 W/m² | - |
| 1777649147 | 21.67° C | 63% | 1013.5 hPa | 0 mm | - | 74 W/m² | - |
| 1777648844 | 21.67° C | 61% | 1013.5 hPa | 0 mm | - | 62 W/m² | - |
| 1777648541 | 21.67° C | 60% | 1013.5 hPa | 0 mm | - | 87 W/m² | - |
| 1777648238 | 21.67° C | 60% | 1013.5 hPa | 0 mm | - | 124 W/m² | - |
| 1777647933 | 21.67° C | 61% | 1013.2 hPa | 0 mm | - | 213 W/m² | - |
| 1777647631 | 21.67° C | 62% | 1013.2 hPa | 0 mm | - | 195 W/m² | - |
| 1777647326 | 21.11° C | 61% | 1013.2 hPa | 0 mm | - | 188 W/m² | - |
| 1777647025 | 21.11° C | 63% | 1013.2 hPa | 0 mm | - | 221 W/m² | - |
| 1777646720 | 21.11° C | 62% | 1013.2 hPa | 0 mm | - | 224 W/m² | - |
| 1777646415 | 21.11° C | 62% | 1013.2 hPa | 0 mm | - | 212 W/m² | - |
| 1777646112 | 21.11° C | 61% | 1013.2 hPa | 0 mm | - | 218 W/m² | - |
| 1777645810 | 20.56° C | 62% | 1013.2 hPa | 0 mm | - | 245 W/m² | - |
| 1777645507 | 20.56° C | 62% | 1012.9 hPa | 0 mm | - | 273 W/m² | - |
* Rain latest hour (hover to see other rain measurements)
** Current wind speed in m/s (hover to see current wind gust speed)